K7OLI-13 Weather Reports


time (UTC)temp
C
wind
direction
speed
KPH
gust
KPH
rain 1hr
cm
rain 24hr
cm
rain mn
cm
humidity
%
barometer
mb
20260507001020 20 235 19.3 24.1 0.00 0.00 0.00 64 1016.4
20260507000028 20 233 14.5 20.9 0.00 0.00 0.00 62 1016.2
20260506235036 20 223 16.1 20.9 0.00 0.00 0.00 63 1017.2
20260506234025 20 254 12.9 19.3 0.00 0.00 0.00 62 1016.4
20260506233021 21 239 14.5 20.9 0.00 0.00 0.00 62 1016.2
20260506232022 21 234 16.1 20.9 0.00 0.00 0.00 62 1016.2
20260506231030 21 242 14.5 19.3 0.00 0.00 0.00 62 1016.2
20260506230039 22 225 17.7 20.9 0.00 0.00 0.00 61 1016.2
20260506225027 22 225 9.7 17.7 0.00 0.00 0.00 62 1017.2
20260506224055 22 235 11.3 12.9 0.00 0.00 0.00 61 1017.2
20260506223024 22 235 9.7 12.9 0.00 0.00 0.00 58 1017.2
20260506222034 22 208 6.4 9.7 0.00 0.00 0.00 57 1017.2
20260506221021 22 189 9.7 12.9 0.00 0.00 0.00 58 1017.2
20260506220049 22 218 4.8 9.7 0.00 0.00 0.00 57 1017.2
20260506215036 22 252 6.4 11.3 0.00 0.00 0.00 58 1017.2
20260506214025 22 222 8.0 12.9 0.00 0.00 0.00 57 1017.2
20260506213043 22 175 9.7 12.9 0.00 0.00 0.00 58 1017.2
20260506212023 22 230 8.0 11.3 0.00 0.00 0.00 60 1017.2
20260506211031 21 181 8.0 11.3 0.00 0.00 0.00 63 1017.2
20260506210020 21 213 9.7 12.9 0.00 0.00 0.00 62 1017.2
20260506205028 21 159 8.0 11.3 0.00 0.00 0.00 63 1017.2
20260506204036 21 195 4.8 9.7 0.00 0.00 0.00 64 1017.2
20260506203025 20 191 6.4 9.7 0.00 0.00 0.00 66 1017.2
20260506202055 20 177 6.4 11.3 0.00 0.00 0.00 66 1018.2
20260506201022 19 196 8.0 14.5 0.00 0.00 0.00 70 1018.2
20260506200030 19 196 8.0 12.9 0.00 0.00 0.00 71 1018.2
20260506195040 19 172 6.4 12.9 0.00 0.00 0.00 71 1018.2
20260506194027 19 176 8.0 11.3 0.00 0.00 0.00 70 1018.2
20260506193025 19 148 9.7 14.5 0.00 0.00 0.00 69 1018.2
20260506192026 19 122 9.7 12.9 0.00 0.00 0.00 70 1018.2
20260506191054 18 146 6.4 11.3 0.00 0.00 0.00 73 1018.2
20260506190022 17 116 8.0 11.3 0.00 0.00 0.00 75 1018.2
20260506185029 17 170 8.0 12.9 0.00 0.00 0.00 76 1018.2
20260506184018 16 187 9.7 11.3 0.00 0.00 0.00 78 1018.1
20260506183027 16 165 8.0 12.9 0.00 0.00 0.00 78 1018.1
20260506182055 16 173 6.4 11.3 0.00 0.00 0.00 79 1018.1
20260506181046 16 173 8.0 14.5 0.00 0.00 0.00 78 1018.1
20260506180034 15 95 8.0 11.3 0.00 0.00 0.00 81 1018.1
20260506175021 15 165 4.8 8.0 0.00 0.00 0.00 82 1018.1
20260506174049 15 157 6.4 11.3 0.00 0.00 0.00 84 1018.1
20260506173028 14 171 4.8 8.0 0.00 0.00 0.00 85 1018.1
20260506172026 14 191 9.7 12.9 0.00 0.00 0.00 84 1018.1
20260506171035 14 162 4.8 6.4 0.00 0.00 0.00 85 1018.1
20260506170046 14 203 6.4 8.0 0.00 0.00 0.00 86 1018.1
20260506165031 13 162 4.8 8.0 0.00 0.00 0.00 87 1018.1
20260506164101 13 198 8.0 12.9 0.00 0.00 0.00 87 1018.1
20260506163109 13 172 4.8 9.7 0.00 0.00 0.00 89 1018.1
20260506162036 13 189 8.0 11.3 0.00 0.00 0.00 87 1018.1
20260506161026 13 134 4.8 12.9 0.00 0.00 0.00 87 1017.2
20260506160035 13 98 6.4 11.3 0.00 0.00 0.00 86 1017.2
20260506155023 13 175 3.2 6.4 0.00 0.00 0.00 88 1018.1
20260506154031 12 211 6.4 9.7 0.00 0.00 0.00 89 1018.1
20260506153020 12 199 8.0 11.3 0.00 0.00 0.00 90 1018.1
20260506152100 12 229 9.7 14.5 0.00 0.00 0.00 90 1018.1
20260506151036 12 244 8.0 11.3 0.00 0.00 0.00 90 1018.1
20260506150027 12 222 9.7 12.9 0.00 0.00 0.00 89 1018.1
20260506145034 12 208 9.7 14.5 0.00 0.00 0.00 88 1017.1
20260506144022 13 177 9.7 11.3 0.00 0.00 0.00 88 1017.1
20260506143030 13 187 6.4 9.7 0.00 0.00 0.00 87 1017.1
20260506142020 12 182 6.4 8.0 0.00 0.00 0.00 90 1016.1
20260506141027 12 158 8.0 9.7 0.00 0.00 0.00 91 1016.9
20260506140035 12 157 9.7 12.9 0.00 0.00 0.00 91 1017.1
20260506135027 12 159 6.4 8.0 0.00 0.00 0.00 90 1017.1
20260506134033 12 146 8.0 9.7 0.00 0.00 0.00 90 1016.4
20260506133022 12 149 4.8 8.0 0.00 0.00 0.00 92 1016.2
20260506132021 12 113 4.8 8.0 0.00 0.00 0.00 92 1016.2
20260506131019 12 112 4.8 6.4 0.00 0.00 0.00 91 1016.2
20260506130047 12 126 4.8 6.4 0.00 0.00 0.00 89 1016.1
20260506125035 12 183 11.3 17.7 0.00 0.00 0.00 89 1016.1
20260506124024 12 200 8.0 14.5 0.00 0.00 0.00 89 1016.1
20260506123032 12 187 8.0 11.3 0.00 0.00 0.00 90 1016.1
20260506122023 12 198 9.7 12.9 0.00 0.00 0.00 90 1016.1
20260506121049 12 200 11.3 16.1 0.00 0.00 0.00 90 1016.1
20260506120037 12 205 11.3 14.5 0.00 0.00 0.00 91 1016.1
20260506115026 11 220 9.7 17.7 0.00 0.00 0.00 91 1016.1
20260506114034 11 228 11.3 14.5 0.00 0.00 0.00 91 1015.4
20260506113024 11 217 11.3 14.5 0.00 0.00 0.00 92 1015.2
20260506112023 11 201 12.9 17.7 0.00 0.00 0.00 92 1015.2
20260506111020 11 216 11.3 17.7 0.00 0.00 0.00 92 1015.1
20260506110028 11 207 14.5 24.1 0.00 0.00 0.00 93 1015.1
20260506105036 11 209 12.9 16.1 0.00 0.00 0.00 93 1015.1
20260506104045 11 196 8.0 11.3 0.00 0.00 0.00 94 1015.1
20260506103034 11 208 11.3 17.7 0.00 0.00 0.00 94 1015.1
20260506102026 11 206 8.0 11.3 0.00 0.00 0.00 94 1014.1
20260506101030 11 210 8.0 11.3 0.00 0.00 0.00 93 1014.1
20260506100040 11 193 8.0 9.7 0.00 0.00 0.00 93 1014.1
20260506095047 11 204 6.4 8.0 0.00 0.00 0.00 93 1014.1
20260506094036 11 207 6.4 8.0 0.00 0.00 0.00 93 1014.1
20260506093024 11 203 6.4 11.3 0.00 0.00 0.00 92 1014.1
20260506092027 11 212 6.4 9.7 0.00 0.00 0.00 92 1014.1
20260506091022 11 218 4.8 6.4 0.00 0.00 0.00 92 1014.1
20260506090030 12 203 3.2 3.2 0.00 0.00 0.00 91 1014.1
20260506085019 12 215 0.0 1.6 0.00 0.00 0.00 90 1014.1
20260506084028 12 245 3.2 3.2 0.00 0.00 0.00 90 1014.1
20260506083037 12 248 0.0 3.2 0.00 0.00 0.00 88 1014.1
20260506082026 13 219 1.6 4.8 0.00 0.00 0.00 88 1014.1
20260506081034 13 222 4.8 8.0 0.00 0.00 0.00 87 1014.1
20260506073027 13 223 8.0 11.3 0.00 0.00 0.00 86 1014.1
20260506072027 13 216 9.7 11.3 0.00 0.00 0.00 86 1014.1
20260506071026 13 236 9.7 11.3 0.00 0.00 0.00 86 1013.3
20260506062029 13 230 8.0 9.7 0.00 0.00 0.00 85 1013.1
20260506061034 13 220 6.4 11.3 0.00 0.00 0.00 85 1013.1
20260506051020 15 219 9.7 12.9 0.00 0.00 0.00 82 1013.1
20260506050135 15 215 9.7 11.3 0.00 0.00 0.00 80 1013.1
20260506045042 16 224 8.0 9.7 0.00 0.00 0.00 79 1013.2
20260506044030 17 226 8.0 11.3 0.00 0.00 0.00 78 1013.2
20260506043019 17 53 1.6 3.2 0.00 0.00 0.00 77 1013.2
20260506042030 17 77 1.6 4.8 0.00 0.00 0.00 77 1012.2
20260506041020 17 90 0.0 3.2 0.00 0.00 0.00 77 1012.2
20260506040026 17 100 3.2 4.8 0.00 0.00 0.00 77 1012.2
20260506035032 17 105 3.2 4.8 0.00 0.00 0.00 77 1012.1
20260506034042 17 127 4.8 6.4 0.00 0.00 0.00 77 1012.1
20260506033029 17 110 3.2 6.4 0.00 0.00 0.00 77 1012.1
20260506032019 17 105 4.8 6.4 0.00 0.00 0.00 76 1012.1
20260506031022 17 110 4.8 6.4 0.00 0.00 0.00 76 1012.1
20260506030136 17 71 4.8 8.0 0.00 0.00 0.00 75 1012.1
20260506025025 17 91 4.8 8.0 0.00 0.00 0.00 75 1012.1
20260506024033 17 55 6.4 8.0 0.00 0.00 0.00 74 1012.1
20260506023021 17 49 6.4 8.0 0.00 0.00 0.00 74 1012.1
20260506022055 17 55 8.0 9.7 0.00 0.00 0.00 73 1012.1
20260506021023 17 44 8.0 11.3 0.00 0.00 0.00 73 1012.1
20260506020027 18 46 6.4 8.0 0.00 0.00 0.00 72 1012.1
20260506015035 18 56 6.4 8.0 0.00 0.00 0.00 71 1012.1
20260506014024 18 24 6.4 9.7 0.00 0.00 0.00 70 1012.2
20260506013112 18 2 4.8 8.0 0.00 0.00 0.00 69 1012.2
20260506012022 18 6 3.2 8.0 0.00 0.00 0.00 70 1012.2
20260506011023 18 35 6.4 11.3 0.00 0.00 0.00 69 1012.2
20260506010057 18 325 6.4 9.7 0.00 0.00 0.00 69 1012.2
20260506005027 18 45 8.0 9.7 0.00 0.00 0.00 70 1012.2
20260506004035 18 42 9.7 9.7 0.00 0.00 0.00 69 1012.2
20260506003024 18 50 8.0 12.9 0.00 0.00 0.00 69 1012.2
20260506002035 18 331 6.4 9.7 0.00 0.00 0.00 68 1012.2